Time,TemperatureF,DewpointF,PressureIn,WindDirection,WindDirectionDegrees,WindSpeedMPH,WindSpeedGustMPH,Humidity,HourlyPrecipIn,Conditions,Clouds,dailyrainin,SoftwareType,DateUTC
2013-05-04 00:02:00,49.0,47.0,30.10,ENE,67,0.0,4.0,93,0.03,,,0.05,,2013-05-04 04:02:00,
2013-05-04 00:12:00,49.0,47.0,30.10,ENE,67,0.0,4.0,93,0.03,,,0.05,,2013-05-04 04:12:00,
2013-05-04 00:23:00,49.0,47.0,30.10,East,100,0.0,4.0,94,0.01,,,0.05,,2013-05-04 04:23:00,
2013-05-04 00:33:00,49.0,47.0,30.10,SE,140,3.0,9.0,94,0.01,,,0.05,,2013-05-04 04:33:00,
2013-05-04 00:42:00,49.0,47.0,30.10,SE,140,3.0,9.0,94,0.01,,,0.05,,2013-05-04 04:42:00,
2013-05-04 00:52:00,49.0,47.0,30.09,SE,129,1.0,7.0,94,0.00,,,0.05,,2013-05-04 04:52:00,
2013-05-04 01:02:00,49.0,47.0,30.09,East,90,3.0,10.0,94,0.01,,,0.06,,2013-05-04 05:02:00,
2013-05-04 01:12:00,49.0,47.0,30.09,East,90,3.0,10.0,94,0.01,,,0.06,,2013-05-04 05:12:00,
2013-05-04 01:22:00,49.0,47.0,30.09,ESE,115,2.0,10.0,93,0.01,,,0.06,,2013-05-04 05:22:00,
2013-05-04 01:32:00,49.0,47.0,30.08,NNE,25,3.0,11.0,93,0.01,,,0.06,,2013-05-04 05:32:00,
2013-05-04 01:43:00,49.0,47.0,30.08,NNE,25,3.0,11.0,93,0.01,,,0.06,,2013-05-04 05:43:00,
2013-05-04 01:52:00,49.0,47.0,30.08,ESE,114,2.0,7.0,93,0.02,,,0.07,,2013-05-04 05:52:00,
2013-05-04 02:01:00,49.0,47.0,30.07,ENE,68,3.0,9.0,93,0.01,,,0.07,,2013-05-04 06:01:00,
2013-05-04 02:11:00,49.0,47.0,30.07,ENE,68,3.0,9.0,93,0.01,,,0.07,,2013-05-04 06:11:00,
2013-05-04 02:22:00,49.0,47.0,30.07,NE,36,1.0,9.0,93,0.01,,,0.07,,2013-05-04 06:22:00,
2013-05-04 02:32:00,49.0,47.0,30.06,ESE,122,2.0,10.0,92,0.01,,,0.07,,2013-05-04 06:32:00,
2013-05-04 02:42:00,49.0,47.0,30.06,ESE,122,2.0,10.0,92,0.01,,,0.07,,2013-05-04 06:42:00,
2013-05-04 02:52:00,49.0,47.0,30.06,ENE,75,4.0,11.0,92,0.00,,,0.07,,2013-05-04 06:52:00,
2013-05-04 03:01:00,48.0,46.0,30.05,ESE,119,3.0,11.0,92,0.00,,,0.07,,2013-05-04 07:01:00,
2013-05-04 03:11:00,48.0,46.0,30.05,ESE,119,3.0,11.0,92,0.00,,,0.07,,2013-05-04 07:11:00,
2013-05-04 03:21:00,48.0,45.0,30.04,East,96,4.0,14.0,91,0.00,,,0.07,,2013-05-04 07:21:00,
2013-05-04 03:32:00,48.0,45.0,30.04,SE,139,5.0,13.0,89,0.00,,,0.07,,2013-05-04 07:32:00,
2013-05-04 03:42:00,48.0,45.0,30.04,SE,139,5.0,13.0,89,0.00,,,0.07,,2013-05-04 07:42:00,
2013-05-04 03:52:00,48.0,45.0,30.05,ESE,120,2.0,8.0,90,0.00,,,0.07,,2013-05-04 07:52:00,
2013-05-04 04:02:00,47.0,44.0,30.04,SE,127,1.0,15.0,88,0.00,,,0.07,,2013-05-04 08:02:00,
2013-05-04 04:11:00,47.0,44.0,30.04,SE,127,1.0,15.0,88,0.00,,,0.07,,2013-05-04 08:11:00,
2013-05-04 04:21:00,47.0,43.0,30.04,ENE,72,0.0,8.0,87,0.00,,,0.07,,2013-05-04 08:21:00,
2013-05-04 04:32:00,47.0,43.0,30.04,NNE,21,3.0,10.0,85,0.00,,,0.07,,2013-05-04 08:32:00,
2013-05-04 04:42:00,47.0,43.0,30.04,NNE,21,3.0,10.0,85,0.00,,,0.07,,2013-05-04 08:42:00,
2013-05-04 04:52:00,46.0,42.0,30.04,ESE,113,1.0,11.0,85,0.00,,,0.07,,2013-05-04 08:52:00,
2013-05-04 05:02:00,46.0,42.0,30.04,ENE,59,1.0,5.0,85,0.00,,,0.07,,2013-05-04 09:02:00,
2013-05-04 05:11:00,46.0,42.0,30.04,ENE,59,1.0,5.0,85,0.00,,,0.07,,2013-05-04 09:11:00,
2013-05-04 05:22:00,46.0,41.0,30.04,ESE,106,0.0,7.0,83,0.00,,,0.07,,2013-05-04 09:22:00,
2013-05-04 05:32:00,46.0,40.0,30.05,NE,49,1.0,13.0,80,0.00,,,0.07,,2013-05-04 09:32:00,
2013-05-04 05:42:00,46.0,40.0,30.05,NE,49,1.0,13.0,80,0.00,,,0.07,,2013-05-04 09:42:00,
2013-05-04 05:52:00,46.0,41.0,30.06,ESE,122,5.0,12.0,82,0.00,,,0.07,,2013-05-04 09:52:00,
2013-05-04 06:03:00,45.0,39.0,30.06,NE,56,2.0,7.0,80,0.00,,,0.07,,2013-05-04 10:03:00,
2013-05-04 06:12:00,45.0,39.0,30.06,NE,56,2.0,7.0,80,0.00,,,0.07,,2013-05-04 10:12:00,
2013-05-04 06:23:00,45.0,39.0,30.06,NE,56,1.0,7.0,78,0.00,,,0.07,,2013-05-04 10:23:00,
2013-05-04 06:33:00,45.0,40.0,30.06,ESE,117,1.0,4.0,81,0.00,,,0.07,,2013-05-04 10:33:00,
2013-05-04 06:42:00,45.0,40.0,30.06,ESE,117,1.0,4.0,81,0.00,,,0.07,,2013-05-04 10:42:00,
2013-05-04 06:52:00,45.0,40.0,30.07,NNW,341,0.0,9.0,83,0.00,,,0.07,,2013-05-04 10:52:00,
2013-05-04 07:02:00,45.0,40.0,30.06,ESE,109,1.0,5.0,84,0.00,,,0.07,,2013-05-04 11:02:00,
2013-05-04 07:11:00,45.0,40.0,30.06,ESE,109,1.0,5.0,84,0.00,,,0.07,,2013-05-04 11:11:00,
2013-05-04 07:21:00,45.0,41.0,30.06,ENE,70,0.0,7.0,86,0.00,,,0.07,,2013-05-04 11:21:00,
2013-05-04 07:32:00,45.0,41.0,30.07,South,182,4.0,10.0,87,0.00,,,0.07,,2013-05-04 11:32:00,
2013-05-04 07:45:00,45.0,41.0,30.07,South,182,4.0,10.0,87,0.00,,,0.07,,2013-05-04 11:45:00,
2013-05-04 08:09:00,45.0,42.0,30.08,NE,56,6.0,16.0,88,0.00,,,0.07,,2013-05-04 12:09:00,
2013-05-04 08:14:00,45.0,42.0,30.08,NE,56,6.0,16.0,88,0.00,,,0.07,,2013-05-04 12:14:00,
2013-05-04 08:30:00,45.0,42.0,30.08,East,98,2.0,12.0,89,0.00,,,0.07,,2013-05-04 12:30:00,
2013-05-04 08:37:00,45.0,42.0,30.08,NE,53,4.0,13.0,88,0.00,,,0.07,,2013-05-04 12:37:00,
2013-05-04 08:52:00,45.0,42.0,30.08,ENE,71,1.0,11.0,88,0.00,,,0.07,,2013-05-04 12:52:00,
2013-05-04 09:01:00,45.0,42.0,30.08,NW,315,2.0,5.0,89,0.00,,,0.07,,2013-05-04 13:01:00,
2013-05-04 09:11:00,45.0,42.0,30.08,NW,315,2.0,5.0,89,0.00,,,0.07,,2013-05-04 13:11:00,
2013-05-04 09:32:00,45.0,43.0,30.08,NE,51,4.0,10.0,92,0.00,,,0.07,,2013-05-04 13:32:00,
2013-05-04 09:42:00,45.0,43.0,30.08,NE,51,4.0,10.0,92,0.00,,,0.07,,2013-05-04 13:42:00,
2013-05-04 09:52:00,45.0,43.0,30.08,ENE,65,1.0,8.0,91,0.00,,,0.07,,2013-05-04 13:52:00,
2013-05-04 10:02:00,46.0,44.0,30.07,ENE,68,2.0,8.0,91,0.00,,,0.07,,2013-05-04 14:02:00,
2013-05-04 10:11:00,46.0,44.0,30.07,ENE,68,2.0,8.0,91,0.00,,,0.07,,2013-05-04 14:11:00,
2013-05-04 10:21:00,46.0,43.0,30.08,East,86,1.0,11.0,90,0.00,,,0.07,,2013-05-04 14:21:00,
2013-05-04 10:32:00,46.0,43.0,30.08,NNW,345,1.0,7.0,90,0.00,,,0.07,,2013-05-04 14:32:00,
2013-05-04 10:42:00,46.0,43.0,30.08,NNW,345,1.0,7.0,90,0.00,,,0.07,,2013-05-04 14:42:00,
2013-05-04 10:52:00,47.0,45.0,30.07,ENE,77,1.0,7.0,91,0.00,,,0.07,,2013-05-04 14:52:00,
2013-05-04 11:02:00,47.0,44.0,30.08,ENE,70,0.0,11.0,90,0.00,,,0.07,,2013-05-04 15:02:00,
2013-05-04 11:12:00,47.0,44.0,30.08,ENE,70,0.0,11.0,90,0.00,,,0.07,,2013-05-04 15:12:00,
2013-05-04 11:22:00,48.0,45.0,30.08,East,95,3.0,17.0,89,0.00,,,0.07,,2013-05-04 15:22:00,
2013-05-04 11:33:00,48.0,45.0,30.08,ENE,58,2.0,7.0,89,0.00,,,0.07,,2013-05-04 15:33:00,
2013-05-04 11:43:00,48.0,45.0,30.08,ENE,58,2.0,7.0,89,0.00,,,0.07,,2013-05-04 15:43:00,
2013-05-04 11:52:00,48.0,45.0,30.08,ENE,58,2.0,7.0,89,0.00,,,0.07,,2013-05-04 15:52:00,
2013-05-04 12:03:00,48.0,45.0,30.07,NE,54,5.0,11.0,89,0.00,,,0.07,,2013-05-04 16:03:00,
2013-05-04 12:12:00,48.0,45.0,30.07,NE,54,5.0,11.0,89,0.00,,,0.07,,2013-05-04 16:12:00,
2013-05-04 12:22:00,48.0,45.0,30.06,NE,56,2.0,8.0,89,0.00,,,0.07,,2013-05-04 16:22:00,
2013-05-04 12:33:00,49.0,46.0,30.06,ENE,65,4.0,10.0,88,0.00,,,0.07,,2013-05-04 16:33:00,
2013-05-04 12:42:00,49.0,46.0,30.06,ENE,65,4.0,10.0,88,0.00,,,0.07,,2013-05-04 16:42:00,
2013-05-04 12:52:00,49.0,45.0,30.06,ESE,107,2.0,10.0,87,0.00,,,0.07,,2013-05-04 16:52:00,
2013-05-04 13:02:00,50.0,46.0,30.06,NNE,16,1.0,6.0,87,0.00,,,0.07,,2013-05-04 17:02:00,
2013-05-04 13:12:00,50.0,46.0,30.06,NNE,16,1.0,6.0,87,0.00,,,0.07,,2013-05-04 17:12:00,
2013-05-04 13:22:00,50.0,46.0,30.06,ESE,105,2.0,8.0,87,0.00,,,0.07,,2013-05-04 17:22:00,
2013-05-04 13:32:00,51.0,47.0,30.06,East,95,2.0,7.0,86,0.00,,,0.07,,2013-05-04 17:32:00,
2013-05-04 13:42:00,51.0,47.0,30.06,East,95,2.0,7.0,86,0.00,,,0.07,,2013-05-04 17:42:00,
2013-05-04 13:52:00,51.0,47.0,30.05,ESE,122,2.0,10.0,85,0.00,,,0.07,,2013-05-04 17:52:00,
2013-05-04 14:01:00,51.0,47.0,30.05,ESE,109,5.0,11.0,85,0.00,,,0.07,,2013-05-04 18:01:00,
2013-05-04 14:12:00,51.0,47.0,30.05,ESE,109,5.0,11.0,85,0.00,,,0.07,,2013-05-04 18:12:00,
2013-05-04 14:22:00,51.0,46.0,30.04,SE,141,1.0,7.0,84,0.00,,,0.07,,2013-05-04 18:22:00,
2013-05-04 14:32:00,50.0,46.0,30.04,South,172,3.0,14.0,85,0.00,,,0.07,,2013-05-04 18:32:00,
2013-05-04 14:42:00,50.0,46.0,30.04,South,172,3.0,14.0,85,0.00,,,0.07,,2013-05-04 18:42:00,
2013-05-04 14:52:00,50.0,46.0,30.03,ENE,63,5.0,13.0,85,0.00,,,0.07,,2013-05-04 18:52:00,
2013-05-04 15:02:00,50.0,47.0,30.02,ENE,58,1.0,9.0,89,0.00,,,0.07,,2013-05-04 19:02:00,
2013-05-04 15:11:00,50.0,47.0,30.02,ENE,58,1.0,9.0,89,0.00,,,0.07,,2013-05-04 19:11:00,
2013-05-04 15:21:00,51.0,47.0,30.03,ENE,77,3.0,11.0,86,0.00,,,0.07,,2013-05-04 19:21:00,
2013-05-04 15:32:00,51.0,47.0,30.03,ENE,75,5.0,14.0,85,0.00,,,0.07,,2013-05-04 19:32:00,
2013-05-04 15:42:00,51.0,47.0,30.03,ENE,75,5.0,14.0,85,0.00,,,0.07,,2013-05-04 19:42:00,
2013-05-04 15:52:00,51.0,46.0,30.03,East,81,3.0,8.0,84,0.00,,,0.07,,2013-05-04 19:52:00,
2013-05-04 16:02:00,51.0,46.0,30.02,East,91,6.0,13.0,84,0.00,,,0.07,,2013-05-04 20:02:00,
2013-05-04 16:11:00,51.0,46.0,30.02,East,91,6.0,13.0,84,0.00,,,0.07,,2013-05-04 20:11:00,
2013-05-04 16:22:00,51.0,47.0,30.02,ENE,59,1.0,7.0,86,0.00,,,0.07,,2013-05-04 20:22:00,
2013-05-04 16:32:00,50.0,46.0,30.02,East,83,1.0,12.0,87,0.01,,,0.08,,2013-05-04 20:32:00,
2013-05-04 16:42:00,50.0,46.0,30.02,East,83,1.0,12.0,87,0.01,,,0.08,,2013-05-04 20:42:00,
2013-05-04 16:52:00,50.0,47.0,30.01,ESE,114,3.0,9.0,89,0.02,,,0.09,,2013-05-04 20:52:00,
2013-05-04 17:02:00,49.0,46.0,30.01,NE,43,1.0,11.0,91,0.02,,,0.09,,2013-05-04 21:02:00,
2013-05-04 17:12:00,49.0,46.0,30.01,NE,43,1.0,11.0,91,0.02,,,0.09,,2013-05-04 21:12:00,
2013-05-04 17:22:00,49.0,46.0,30.02,SW,230,0.0,4.0,91,0.03,,,0.10,,2013-05-04 21:22:00,
2013-05-04 17:33:00,49.0,46.0,30.01,NE,40,0.0,6.0,91,0.02,,,0.10,,2013-05-04 21:33:00,
2013-05-04 17:43:00,49.0,46.0,30.01,NE,40,0.0,6.0,91,0.02,,,0.10,,2013-05-04 21:43:00,
2013-05-04 17:53:00,49.0,47.0,30.01,NE,46,0.0,5.0,92,0.01,,,0.10,,2013-05-04 21:53:00,
2013-05-04 18:03:00,49.0,46.0,30.01,ENE,67,2.0,6.0,91,0.01,,,0.10,,2013-05-04 22:03:00,
2013-05-04 18:12:00,49.0,46.0,30.01,ENE,67,2.0,6.0,91,0.01,,,0.10,,2013-05-04 22:12:00,
2013-05-04 18:22:00,49.0,47.0,30.01,NE,43,4.0,14.0,92,0.01,,,0.11,,2013-05-04 22:22:00,
2013-05-04 18:33:00,48.0,46.0,30.01,NE,40,0.0,9.0,92,0.02,,,0.12,,2013-05-04 22:33:00,
2013-05-04 18:42:00,48.0,46.0,30.01,NE,40,0.0,9.0,92,0.02,,,0.12,,2013-05-04 22:42:00,
2013-05-04 18:52:00,48.0,46.0,30.01,NE,53,3.0,8.0,92,0.02,,,0.12,,2013-05-04 22:52:00,
2013-05-04 19:02:00,48.0,46.0,29.99,ENE,63,0.0,4.0,92,0.03,,,0.13,,2013-05-04 23:02:00,
2013-05-04 19:12:00,48.0,46.0,29.99,ENE,63,0.0,4.0,92,0.03,,,0.13,,2013-05-04 23:12:00,
2013-05-04 19:22:00,48.0,46.0,30.02,NW,318,1.0,3.0,93,0.05,,,0.16,,2013-05-04 23:22:00,
2013-05-04 19:32:00,48.0,46.0,30.02,WNW,285,0.0,3.0,94,0.07,,,0.19,,2013-05-04 23:32:00,
2013-05-04 19:42:00,48.0,46.0,30.02,WNW,285,0.0,3.0,94,0.07,,,0.19,,2013-05-04 23:42:00,
2013-05-04 19:52:00,48.0,47.0,30.02,SSE,164,0.0,5.0,95,0.09,,,0.21,,2013-05-04 23:52:00,
2013-05-04 20:02:00,48.0,47.0,30.01,SE,133,0.0,6.0,95,0.19,,,0.32,,2013-05-05 00:02:00,
2013-05-04 20:11:00,48.0,47.0,30.01,SE,133,0.0,6.0,95,0.19,,,0.32,,2013-05-05 00:11:00,
2013-05-04 20:22:00,48.0,47.0,30.03,South,174,0.0,2.0,95,0.23,,,0.40,,2013-05-05 00:22:00,
2013-05-04 20:32:00,48.0,47.0,30.02,NE,55,2.0,3.0,95,0.26,,,0.45,,2013-05-05 00:32:00,
2013-05-04 20:42:00,48.0,47.0,30.02,NE,55,2.0,3.0,95,0.26,,,0.45,,2013-05-05 00:42:00,
2013-05-04 20:52:00,48.0,47.0,30.03,SE,139,0.0,8.0,95,0.28,,,0.50,,2013-05-05 00:52:00,
2013-05-04 21:01:00,47.0,46.0,30.06,SE,146,0.0,9.0,95,0.22,,,0.54,,2013-05-05 01:01:00,
2013-05-04 21:11:00,47.0,46.0,30.06,SE,146,0.0,9.0,95,0.22,,,0.54,,2013-05-05 01:11:00,
2013-05-04 21:21:00,47.0,46.0,30.04,ESE,121,0.0,8.0,95,0.17,,,0.56,,2013-05-05 01:21:00,
2013-05-04 21:32:00,47.0,46.0,30.04,East,96,0.0,6.0,95,0.14,,,0.57,,2013-05-05 01:32:00,
2013-05-04 21:42:00,47.0,46.0,30.04,East,96,0.0,6.0,95,0.14,,,0.57,,2013-05-05 01:42:00,
2013-05-04 21:52:00,47.0,46.0,30.03,ENE,58,2.0,7.0,95,0.11,,,0.60,,2013-05-05 01:52:00,
2013-05-04 22:02:00,47.0,46.0,30.03,SSE,153,1.0,7.0,95,0.08,,,0.61,,2013-05-05 02:02:00,
2013-05-04 22:12:00,47.0,46.0,30.03,SSE,153,1.0,7.0,95,0.08,,,0.61,,2013-05-05 02:12:00,
2013-05-04 22:22:00,47.0,46.0,30.03,NW,309,2.0,7.0,95,0.06,,,0.61,,2013-05-05 02:22:00,
2013-05-04 22:32:00,47.0,46.0,30.02,ENE,73,1.0,6.0,95,0.04,,,0.61,,2013-05-05 02:32:00,
2013-05-04 22:42:00,47.0,46.0,30.02,ENE,73,1.0,6.0,95,0.04,,,0.61,,2013-05-05 02:42:00,
2013-05-04 22:52:00,47.0,46.0,30.02,ESE,117,2.0,7.0,95,0.02,,,0.61,,2013-05-05 02:52:00,
2013-05-04 23:01:00,47.0,46.0,30.03,ESE,112,0.0,14.0,95,0.02,,,0.62,,2013-05-05 03:01:00,
2013-05-04 23:11:00,47.0,46.0,30.03,ESE,112,0.0,14.0,95,0.02,,,0.62,,2013-05-05 03:11:00,
2013-05-04 23:22:00,47.0,46.0,30.03,ENE,59,3.0,6.0,95,0.02,,,0.61,,2013-05-05 03:22:00,
2013-05-04 23:33:00,47.0,46.0,30.01,ESE,109,1.0,4.0,95,0.02,,,0.61,,2013-05-05 03:33:00,
2013-05-04 23:42:00,47.0,46.0,30.01,ESE,109,1.0,4.0,95,0.02,,,0.61,,2013-05-05 03:42:00,
2013-05-04 23:53:00,47.0,46.0,30.01,SE,128,3.0,11.0,95,0.02,,,0.61,,2013-05-05 03:53:00,